TimeEST,TemperatureF,Dew PointF,Humidity,Sea Level PressureIn,VisibilityMPH,Wind Direction,Wind SpeedMPH,Gust SpeedMPH,PrecipitationIn,Events,Conditions,WindDirDegrees,DateUTC
12:53 AM,41.0,19.0,41,30.32,10.0,South,8.1,-,N/A,,Clear,170,2013-11-21 05:53:00
1:53 AM,41.0,19.0,41,30.33,10.0,South,9.2,-,N/A,,Mostly Cloudy,170,2013-11-21 06:53:00
2:53 AM,42.1,19.9,41,30.33,10.0,South,11.5,-,N/A,,Overcast,180,2013-11-21 07:53:00
3:53 AM,42.1,21.0,43,30.32,10.0,South,12.7,-,N/A,,Overcast,170,2013-11-21 08:53:00
4:53 AM,41.0,26.1,55,30.33,10.0,South,6.9,-,0.00,,Overcast,180,2013-11-21 09:53:00
5:53 AM,42.1,25.0,51,30.35,10.0,South,10.4,-,0.00,,Overcast,170,2013-11-21 10:53:00
6:53 AM,41.0,27.0,57,30.36,10.0,South,13.8,-,0.00,Rain,Light Rain,180,2013-11-21 11:53:00
7:53 AM,41.0,30.0,65,30.35,10.0,South,13.8,-,0.01,Rain,Light Rain,180,2013-11-21 12:53:00
8:53 AM,39.9,33.1,77,30.35,10.0,South,11.5,-,0.00,Rain,Light Rain,180,2013-11-21 13:53:00
9:53 AM,39.9,35.1,83,30.36,8.0,SSW,9.2,-,0.01,Rain,Light Rain,200,2013-11-21 14:53:00
10:53 AM,42.1,37.0,82,30.38,10.0,SSW,10.4,-,0.00,Rain,Light Rain,200,2013-11-21 15:53:00
11:53 AM,42.1,37.0,82,30.34,10.0,South,11.5,-,0.00,,Overcast,180,2013-11-21 16:53:00
12:53 PM,43.0,37.9,82,30.33,10.0,South,8.1,-,0.00,Rain,Light Rain,180,2013-11-21 17:53:00
1:53 PM,45.0,39.0,80,30.29,10.0,South,10.4,-,0.01,,Overcast,170,2013-11-21 18:53:00
2:53 PM,45.0,39.0,80,30.27,10.0,South,10.4,-,0.00,Rain,Light Rain,170,2013-11-21 19:53:00
3:53 PM,45.0,37.9,76,30.27,10.0,South,11.5,-,0.00,Rain,Light Rain,170,2013-11-21 20:53:00
4:53 PM,44.1,37.9,79,30.28,10.0,South,3.5,-,0.00,,Overcast,180,2013-11-21 21:53:00
5:53 PM,44.1,37.9,79,30.28,10.0,SSE,4.6,-,N/A,,Overcast,160,2013-11-21 22:53:00
6:53 PM,44.1,39.0,82,30.29,10.0,South,3.5,-,0.00,Rain,Light Rain,180,2013-11-21 23:53:00
7:53 PM,44.1,39.0,82,30.26,8.0,South,4.6,-,0.01,Rain,Light Rain,170,2013-11-22 00:53:00
8:53 PM,44.1,39.9,85,30.25,8.0,Calm,Calm,-,0.01,Rain,Light Rain,0,2013-11-22 01:53:00
9:53 PM,44.1,39.9,85,30.24,8.0,South,3.5,-,0.00,Rain,Light Rain,180,2013-11-22 02:53:00
10:32 PM,44.6,41.0,87,30.21,7.0,SSW,3.5,-,0.02,Rain,Light Rain,200,2013-11-22 03:32:00
10:53 PM,45.0,41.0,86,30.22,5.0,Calm,Calm,-,0.03,Rain,Light Rain,0,2013-11-22 03:53:00
11:53 PM,46.0,42.1,86,30.22,6.0,South,4.6,-,0.04,Rain,Light Rain,190,2013-11-22 04:53:00